DW0218 Weather Reports


Display with metric or nautical units.
time (UTC)temp
F
wind
direction
speed
MPH
gust
MPH
rain 1hr
in
rain 24hr
in
rain mn
in
humidity
%
barometer
mb
20260507212805 51 69 0.0 3.0 0.00 0.00 0.00 80 1016.0
20260507210805 51 275 1.0 5.0 0.00 0.00 0.00 76 1016.0
20260507205805 52 202 1.0 2.0 0.00 0.00 0.00 75 1016.0
20260507204805 52 3 1.0 3.0 0.00 0.00 0.00 74 1016.0
20260507201805 52 270 1.0 3.0 0.00 0.00 0.00 67 1016.0
20260507194804 53 270 2.0 3.0 0.00 0.00 0.00 58 1015.0
20260507192806 54 232 1.0 3.0 0.00 0.00 0.00 55 1015.0
20260507185806 55 271 1.0 3.0 0.00 0.00 0.00 52 1014.0
20260507183806 56 231 2.0 6.0 0.00 0.00 0.00 50 1014.0
20260507182805 56 225 2.0 6.0 0.00 0.00 0.00 50 1014.0
20260507181805 57 239 2.0 5.0 0.00 0.00 0.00 49 1014.0
20260507172805 58 64 2.0 5.0 0.00 0.00 0.00 49 1015.0
20260507170805 59 221 2.0 7.0 0.00 0.00 0.00 50 1015.0
20260507164805 60 276 2.0 5.0 0.00 0.00 0.00 49 1015.0
20260507163806 61 293 2.0 5.0 0.00 0.00 0.00 49 1015.0
20260507162806 61 262 1.0 6.0 0.00 0.00 0.00 48 1015.0
20260507154806 61 250 4.0 6.0 0.00 0.00 0.00 50 1015.0
20260507151805 60 248 2.0 3.0 0.00 0.00 0.00 48 1015.0
20260507150805 60 248 1.0 3.0 0.00 0.00 0.00 49 1015.0
20260507144806 61 199 3.0 5.0 0.00 0.00 0.00 49 1015.0
20260507143806 62 221 2.0 5.0 0.00 0.00 0.00 48 1015.0
20260507142805 62 230 2.0 5.0 0.00 0.00 0.00 48 1015.0
20260507140806 62 220 1.0 6.0 0.00 0.00 0.00 49 1015.0
20260507135805 62 244 3.0 6.0 0.00 0.00 0.00 49 1015.0
20260507132805 64 248 3.0 5.0 0.00 0.00 0.00 47 1015.0
20260507125805 65 316 4.0 6.0 0.00 0.00 0.00 45 1015.0
20260507124805 66 187 4.0 7.0 0.00 0.00 0.00 46 1015.0
20260507123805 67 266 3.0 8.0 0.00 0.00 0.00 46 1015.0
20260507122805 66 251 3.0 8.0 0.00 0.00 0.00 46 1016.0
20260507113805 64 204 4.0 7.0 0.00 0.00 0.00 48 1016.0
20260507111805 65 260 4.0 7.0 0.00 0.00 0.00 48 1015.0
20260507103805 67 264 4.0 9.0 0.00 0.00 0.00 48 1016.0
20260507101805 64 286 2.0 7.0 0.00 0.00 0.00 50 1016.0
20260507100806 62 338 2.0 5.0 0.00 0.00 0.00 52 1016.0
20260507094805 66 225 2.0 7.0 0.00 0.00 0.00 50 1016.0
20260507093806 66 266 3.0 7.0 0.00 0.00 0.00 51 1016.0
20260507085805 61 235 4.0 8.0 0.00 0.00 0.00 64 1016.0
20260507083805 60 198 3.0 6.0 0.00 0.00 0.00 63 1016.0
20260507082805 60 224 0.0 3.0 0.00 0.00 0.00 58 1016.0
20260507080805 60 315 2.0 5.0 0.00 0.00 0.00 60 1016.0
20260507075805 60 226 2.0 5.0 0.00 0.00 0.00 71 1016.0
20260507073805 54 338 1.0 5.0 0.00 0.00 0.00 74 1016.0
20260507072806 53 41 2.0 5.0 0.00 0.00 0.00 79 1016.0
20260507071805 51 262 2.0 5.0 0.00 0.00 0.00 83 1016.0
20260507070805 49 229 2.0 3.0 0.00 0.00 0.00 88 1016.0
20260507065806 48 0 0.0 3.0 0.00 0.00 0.00 91 1016.0
20260507064805 47 0 0.0 0.0 0.00 0.00 0.00 92 1016.0
20260507062805 45 0 0.0 0.0 0.00 0.00 0.00 94 1016.0
20260507060805 44 0 0.0 0.0 0.00 0.00 0.00 96 1015.0
20260507055804 44 0 0.0 0.0 0.00 0.00 0.00 95 1015.0
20260507053805 43 0 0.0 0.0 0.00 0.00 0.00 95 1015.0
20260507051804 42 0 0.0 0.0 0.00 0.00 0.00 95 1015.0
20260507050805 42 0 0.0 0.0 0.00 0.00 0.00 95 1015.0
20260507043805 41 0 0.0 0.0 0.00 0.00 0.00 95 1015.0
20260507041805 41 0 0.0 0.0 0.00 0.00 0.00 94 1015.0
20260507040805 41 0 0.0 1.0 0.00 0.00 0.00 94 1015.0
20260507034805 41 0 0.0 0.0 0.00 0.00 0.00 94 1015.0
20260507033805 41 0 0.0 0.0 0.00 0.00 0.00 94 1015.0
20260507032805 41 0 0.0 1.0 0.00 0.00 0.00 93 1015.0
20260507030805 41 0 0.0 0.0 0.00 0.00 0.00 91 1015.0
20260507025805 42 0 0.0 0.0 0.00 0.00 0.00 90 1015.0
20260507024805 42 0 0.0 0.0 0.00 0.00 0.00 89 1015.0
20260507022805 42 0 0.0 0.0 0.00 0.00 0.00 87 1015.0
20260507020805 42 0 0.0 0.0 0.00 0.00 0.00 86 1015.0
20260507011805 44 0 0.0 0.0 0.00 0.00 0.00 84 1015.0
20260507005806 44 0 0.0 0.0 0.00 0.00 0.00 82 1015.0
20260507004805 44 0 0.0 1.0 0.00 0.00 0.00 82 1015.0
20260507002806 45 0 0.0 1.0 0.00 0.00 0.00 80 1015.0
20260507001805 46 0 0.0 0.0 0.00 0.00 0.00 78 1015.0
20260507000805 46 0 0.0 0.0 0.00 0.00 0.00 77 1015.0
20260506234805 46 0 0.0 0.0 0.00 0.00 0.00 75 1015.0
20260506232805 47 0 0.0 0.0 0.00 0.00 0.00 73 1015.0
20260506230820 48 0 0.0 0.0 0.00 0.00 0.00 71 1015.0
20260506222805 49 0 0.0 0.0 0.00 0.00 0.00 69 1014.0
20260506221804 49 0 0.0 0.0 0.00 0.00 0.00 68 1014.0
20260506220805 49 0 0.0 0.0 0.00 0.00 0.00 67 1014.0
20260506215805 50 0 0.0 0.0 0.00 0.00 0.00 67 1014.0
20260506214805 50 0 0.0 0.0 0.00 0.00 0.00 66 1014.0